EW9273 Weather Reports


Display with metric or nautical units.
time (UTC)temp
F
wind
direction
speed
MPH
gust
MPH
rain 1hr
in
rain 24hr
in
rain mn
in
humidity
%
barometer
mb
20220529113513 75 179 3.0 9.0 0.00 0.00 0.00 80 1005.7
20220529113015 74 159 4.0 9.0 0.00 0.00 0.00 81 1005.7
20220529112517 74 168 4.0 10.0 0.00 0.00 0.00 81 1005.7
20220529112012 74 221 2.0 12.0 0.00 0.00 0.00 81 1005.8
20220529111512 74 197 3.0 8.0 0.00 0.00 0.00 81 1005.8
20220529111013 74 185 4.0 8.0 0.00 0.00 0.00 81 1005.8
20220529110512 74 178 3.0 9.0 0.00 0.00 0.00 81 1005.8
20220529110012 74 155 4.0 9.0 0.00 0.00 0.00 81 1005.9
20220529105515 74 182 3.0 12.0 0.00 0.00 0.00 81 1005.9
20220529105012 74 202 7.0 12.0 0.00 0.00 0.00 81 1005.9
20220529104525 74 203 4.0 8.0 0.00 0.00 0.00 81 1005.9
20220529104009 74 185 3.0 11.0 0.00 0.00 0.00 81 1005.8
20220529103510 74 162 3.0 11.0 0.00 0.00 0.00 81 1005.9
20220529103022 74 229 5.0 12.0 0.00 0.00 0.00 81 1005.8
20220529102511 74 160 5.0 15.0 0.00 0.00 0.00 82 1005.8
20220529102009 74 165 5.0 15.0 0.00 0.00 0.00 81 1005.8
20220529101509 75 164 4.0 9.0 0.00 0.00 0.00 82 1005.7
20220529101007 75 170 2.0 10.0 0.00 0.00 0.00 82 1005.6
20220529100507 75 165 4.0 10.0 0.00 0.00 0.00 82 1005.6
20220529100007 75 279 4.0 9.0 0.00 0.00 0.00 82 1005.6
20220529095510 75 167 3.0 9.0 0.00 0.00 0.00 82 1005.6
20220529095006 75 198 5.0 10.0 0.00 0.00 0.00 82 1005.6
20220529094506 75 194 5.0 12.0 0.00 0.00 0.00 82 1005.6
20220529094008 74 221 5.0 12.0 0.00 0.00 0.00 82 1005.7
20220529093506 74 162 2.0 11.0 0.00 0.00 0.00 82 1005.7
20220529093005 74 180 4.0 11.0 0.00 0.00 0.00 82 1005.7
20220529092511 74 217 5.0 15.0 0.00 0.00 0.00 83 1005.6
20220529092008 74 166 5.0 15.0 0.00 0.00 0.00 83 1005.6
20220529091509 74 203 4.0 11.0 0.00 0.00 0.00 83 1005.6
20220529091005 74 189 2.0 8.0 0.00 0.00 0.00 83 1005.7
20220529090504 74 176 3.0 14.0 0.00 0.00 0.00 83 1005.7
20220529090004 74 141 6.0 14.0 0.00 0.00 0.00 83 1005.7
20220529085503 74 171 6.0 12.0 0.00 0.00 0.00 83 1005.6
20220529085004 74 189 5.0 12.0 0.00 0.00 0.00 83 1005.5
20220529084508 74 179 5.0 11.0 0.00 0.00 0.00 83 1005.4
20220529084003 74 192 5.0 12.0 0.00 0.00 0.00 83 1005.5
20220529083503 74 194 7.0 16.0 0.00 0.00 0.00 83 1005.5
20220529083003 74 182 6.0 17.0 0.00 0.00 0.00 83 1005.5
20220529082505 74 205 5.0 14.0 0.00 0.00 0.00 84 1005.6
20220529082104 74 171 3.0 14.0 0.00 0.00 0.00 84 1005.6
20220529081619 74 186 6.0 12.0 0.00 0.00 0.00 84 1005.6
20220529081058 74 191 5.0 10.0 0.00 0.00 0.00 84 1005.5
20220529080557 74 182 3.0 11.0 0.00 0.00 0.00 84 1005.5
20220529080104 74 220 4.0 13.0 0.00 0.00 0.00 84 1005.5
20220529075557 74 181 6.0 13.0 0.00 0.00 0.00 84 1005.6
20220529075056 74 165 4.0 12.0 0.00 0.00 0.00 84 1005.6
20220529074606 74 157 4.0 12.0 0.00 0.00 0.00 84 1005.7
20220529074101 74 196 6.0 13.0 0.00 0.00 0.00 84 1005.8
20220529073552 74 203 5.0 13.0 0.00 0.00 0.00 84 1005.8
20220529073052 75 213 3.0 9.0 0.00 0.00 0.00 84 1005.8
20220529072552 74 178 2.0 7.0 0.00 0.00 0.00 84 1005.8
20220529072051 75 148 2.0 9.0 0.00 0.00 0.00 84 1005.9
20220529071550 75 153 4.0 9.0 0.00 0.00 0.00 84 1005.9
20220529071050 75 77 2.0 6.0 0.00 0.00 0.00 83 1006.0
20220529070547 75 162 2.0 8.0 0.00 0.00 0.00 83 1006.0
20220529070059 75 168 4.0 9.0 0.00 0.00 0.00 83 1006.1
20220529065548 75 175 3.0 9.0 0.00 0.00 0.00 82 1006.2
20220529065044 75 83 2.0 5.0 0.00 0.00 0.00 82 1006.2
20220529064543 75 164 2.0 4.0 0.00 0.00 0.00 82 1006.4
20220529064042 75 185 1.0 8.0 0.00 0.00 0.00 82 1006.5
20220529063544 75 159 3.0 8.0 0.00 0.00 0.00 81 1006.5
20220529063041 76 175 3.0 8.0 0.00 0.00 0.00 81 1006.6
20220529062541 76 165 4.0 10.0 0.00 0.00 0.00 81 1006.6
20220529062040 76 167 5.0 10.0 0.00 0.00 0.00 80 1006.7
20220529061544 76 165 2.0 5.0 0.00 0.00 0.00 80 1006.8
20220529061038 76 198 1.0 6.0 0.00 0.00 0.00 79 1006.8
20220529060537 77 194 1.0 10.0 0.00 0.00 0.00 79 1006.9
20220529060050 77 205 3.0 10.0 0.00 0.00 0.00 79 1006.8
20220529055536 77 164 5.0 9.0 0.00 0.00 0.00 78 1006.8
20220529055035 77 206 2.0 6.0 0.00 0.00 0.00 78 1006.8
20220529054550 77 195 3.0 10.0 0.00 0.00 0.00 78 1006.7
20220529054034 77 199 3.0 10.0 0.00 0.00 0.00 78 1006.7
20220529053532 78 215 4.0 10.0 0.00 0.00 0.00 77 1006.7
20220529053031 78 184 4.0 10.0 0.00 0.00 0.00 77 1006.6
20220529052532 78 159 2.0 8.0 0.00 0.00 0.00 77 1006.7
20220529052029 78 137 2.0 7.0 0.00 0.00 0.00 77 1006.7
20220529051528 78 169 3.0 9.0 0.00 0.00 0.00 77 1006.7
20220529051029 79 188 4.0 16.0 0.00 0.00 0.00 76 1006.7
20220529050530 79 178 4.0 11.0 0.00 0.00 0.00 76 1006.7
20220529050025 79 174 2.0 10.0 0.00 0.00 0.00 75 1006.6
20220529045526 79 173 2.0 9.0 0.00 0.00 0.00 75 1006.7
20220529045033 79 137 3.0 7.0 0.00 0.00 0.00 74 1006.7
20220529044524 80 130 3.0 10.0 0.00 0.00 0.00 74 1006.7
20220529044025 80 164 5.0 10.0 0.00 0.00 0.00 73 1006.8
20220529043525 80 136 4.0 12.0 0.00 0.00 0.00 72 1006.7
20220529043041 80 178 5.0 11.0 0.00 0.00 0.00 71 1006.8
20220529042523 81 172 3.0 11.0 0.00 0.00 0.00 70 1006.8
20220529042026 81 146 4.0 11.0 0.00 0.00 0.00 69 1006.8
20220529041523 81 209 3.0 13.0 0.00 0.00 0.00 68 1006.8
20220529041023 81 188 5.0 13.0 0.00 0.00 0.00 68 1006.6
20220529040523 82 163 4.0 11.0 0.00 0.00 0.00 67 1006.6
20220529040033 82 156 5.0 11.0 0.00 0.00 0.00 66 1006.7
20220529035524 82 215 5.0 12.0 0.00 0.00 0.00 65 1006.7
20220529035022 82 174 5.0 11.0 0.00 0.00 0.00 65 1006.7
20220529034532 83 109 4.0 12.0 0.00 0.00 0.00 64 1006.6
20220529034022 83 147 4.0 12.0 0.00 0.00 0.00 63 1006.5
20220529033523 83 192 5.0 10.0 0.00 0.00 0.00 63 1006.4
20220529033023 83 136 4.0 9.0 0.00 0.00 0.00 63 1006.3
20220529032522 84 174 1.0 11.0 0.00 0.00 0.00 65 1006.1
20220529032020 84 233 3.0 17.0 0.00 0.00 0.00 65 1006.0
20220529031527 84 133 5.0 17.0 0.00 0.00 0.00 65 1006.0
20220529031026 84 144 5.0 13.0 0.00 0.00 0.00 65 1005.9
20220529030521 85 194 7.0 14.0 0.00 0.00 0.00 65 1005.8
20220529030020 85 78 4.0 13.0 0.00 0.00 0.00 64 1005.8
20220529025523 85 211 6.0 13.0 0.00 0.00 0.00 64 1005.8
20220529025019 86 106 5.0 15.0 0.00 0.00 0.00 61 1005.8
20220529024521 86 137 4.0 10.0 0.00 0.00 0.00 55 1005.7
20220529024019 86 146 2.0 10.0 0.00 0.00 0.00 53 1005.6
20220529023520 87 223 2.0 10.0 0.00 0.00 0.00 52 1005.6
20220529023025 87 194 2.0 10.0 0.00 0.00 0.00 51 1005.5
20220529022519 87 223 2.0 10.0 0.00 0.00 0.00 50 1005.5
20220529022018 87 209 1.0 7.0 0.00 0.00 0.00 49 1005.4
20220529021528 88 194 3.0 13.0 0.00 0.00 0.00 49 1005.4
20220529021018 88 101 2.0 13.0 0.00 0.00 0.00 49 1005.3
20220529020517 88 175 3.0 13.0 0.00 0.00 0.00 47 1005.2
20220529020017 89 133 2.0 10.0 0.00 0.00 0.00 45 1005.1
20220529015517 89 147 4.0 10.0 0.00 0.00 0.00 44 1005.2
20220529015018 89 158 3.0 8.0 0.00 0.00 0.00 42 1005.1
20220529014517 90 82 2.0 9.0 0.00 0.00 0.00 40 1005.1
20220529014017 90 160 3.0 9.0 0.00 0.00 0.00 39 1005.0
20220529013517 90 142 3.0 6.0 0.00 0.00 0.00 38 1005.0
20220529013017 91 199 1.0 9.0 0.00 0.00 0.00 37 1005.0
20220529012518 91 170 3.0 9.0 0.00 0.00 0.00 36 1004.9
20220529012017 91 141 2.0 7.0 0.00 0.00 0.00 36 1005.0
20220529011522 92 196 2.0 9.0 0.00 0.00 0.00 36 1004.9
20220529011017 92 145 2.0 9.0 0.00 0.00 0.00 36 1004.9
20220529010616 92 185 2.0 7.0 0.00 0.00 0.00 36 1004.8
20220529010034 93 160 2.0 14.0 0.00 0.00 0.00 36 1004.8
20220529005518 93 119 3.0 14.0 0.00 0.00 0.00 36 1004.9
20220529005014 93 194 4.0 10.0 0.00 0.00 0.00 35 1004.8
20220529004514 93 160 4.0 11.0 0.00 0.00 0.00 35 1004.8
20220529004014 94 177 3.0 11.0 0.00 0.00 0.00 35 1004.8
20220529003514 94 167 5.0 9.0 0.00 0.00 0.00 34 1004.8
20220529003037 94 146 3.0 9.0 0.00 0.00 0.00 34 1004.8
20220529002514 94 101 4.0 10.0 0.00 0.00 0.00 34 1004.8
20220529002014 95 206 4.0 11.0 0.00 0.00 0.00 33 1004.7
20220529001513 95 137 4.0 13.0 0.00 0.00 0.00 33 1004.7
20220529001016 95 208 5.0 15.0 0.00 0.00 0.00 33 1004.7
20220529000512 95 168 5.0 15.0 0.00 0.00 0.00 32 1004.7
20220529000013 96 187 2.0 16.0 0.00 0.00 0.00 32 1004.7
20220528235514 96 159 4.0 11.0 0.00 0.00 0.00 30 1004.7
20220528235013 96 180 5.0 14.0 0.00 0.00 0.00 30 1004.7
20220528234516 96 155 7.0 12.0 0.00 0.00 0.00 29 1004.8
20220528234013 96 182 6.0 14.0 0.00 0.00 0.00 29 1004.8
20220528233511 96 129 4.0 14.0 0.00 0.00 0.00 29 1004.8
20220528233010 96 150 4.0 14.0 0.00 0.00 0.00 29 1004.8
20220528232511 97 138 5.0 12.0 0.00 0.00 0.00 28 1004.9
20220528232010 97 202 3.0 10.0 0.00 0.00 0.00 29 1004.9
20220528231510 97 173 2.0 10.0 0.00 0.00 0.00 30 1004.9
20220528231010 97 171 4.0 12.0 0.00 0.00 0.00 31 1005.0
20220528230510 97 167 4.0 12.0 0.00 0.00 0.00 30 1005.0
20220528230007 97 192 3.0 10.0 0.00 0.00 0.00 32 1005.0
20220528225508 96 207 4.0 14.0 0.00 0.00 0.00 32 1005.0
20220528225007 97 155 7.0 14.0 0.00 0.00 0.00 31 1005.1
20220528224508 97 209 5.0 17.0 0.00 0.00 0.00 32 1005.1
20220528224008 97 212 7.0 17.0 0.00 0.00 0.00 32 1005.2
20220528223506 97 182 4.0 13.0 0.00 0.00 0.00 31 1005.2
20220528223005 98 144 5.0 14.0 0.00 0.00 0.00 31 1005.3
20220528222504 98 194 6.0 13.0 0.00 0.00 0.00 31 1005.3
20220528222006 98 211 2.0 10.0 0.00 0.00 0.00 31 1005.4
20220528221509 97 154 2.0 16.0 0.00 0.00 0.00 31 1005.5
20220528221004 97 122 6.0 16.0 0.00 0.00 0.00 31 1005.5
20220528220500 97 144 4.0 11.0 0.00 0.00 0.00 31 1005.6
20220528220100 97 210 5.0 12.0 0.00 0.00 0.00 31 1005.7
20220528215600 97 194 2.0 11.0 0.00 0.00 0.00 32 1005.7
20220528215100 97 183 6.0 11.0 0.00 0.00 0.00 32 1005.8
20220528214558 97 185 5.0 14.0 0.00 0.00 0.00 32 1005.9
20220528214101 97 173 7.0 14.0 0.00 0.00 0.00 32 1005.9
20220528213556 97 248 6.0 16.0 0.00 0.00 0.00 32 1006.2
20220528213058 97 158 7.0 16.0 0.00 0.00 0.00 32 1006.3
20220528212554 97 163 5.0 14.0 0.00 0.00 0.00 32 1006.3
20220528212054 97 159 5.0 14.0 0.00 0.00 0.00 33 1006.5
20220528211552 97 192 5.0 12.0 0.00 0.00 0.00 33 1006.5
20220528211053 97 44 3.0 9.0 0.00 0.00 0.00 33 1006.6
20220528210553 97 180 3.0 9.0 0.00 0.00 0.00 34 1006.6
20220528210053 97 231 4.0 13.0 0.00 0.00 0.00 34 1006.7
20220528205548 97 190 5.0 14.0 0.00 0.00 0.00 33 1006.8
20220528205050 96 254 3.0 17.0 0.00 0.00 0.00 35 1006.8
20220528204547 96 175 7.0 16.0 0.00 0.00 0.00 34 1006.9
20220528204046 97 157 5.0 14.0 0.00 0.00 0.00 33 1007.1
20220528203545 97 187 3.0 11.0 0.00 0.00 0.00 34 1007.1
20220528203058 96 182 2.0 13.0 0.00 0.00 0.00 33 1007.3
20220528202544 96 173 3.0 16.0 0.00 0.00 0.00 34 1007.5
20220528202042 96 183 7.0 16.0 0.00 0.00 0.00 34 1007.6
20220528201545 96 85 2.0 13.0 0.00 0.00 0.00 37 1007.6
20220528201040 96 171 5.0 13.0 0.00 0.00 0.00 37 1007.7
20220528200539 96 197 5.0 13.0 0.00 0.00 0.00 37 1007.8
20220528200038 95 158 6.0 13.0 0.00 0.00 0.00 37 1007.9
20220528195537 95 205 5.0 13.0 0.00 0.00 0.00 36 1007.9
20220528195041 94 188 2.0 17.0 0.00 0.00 0.00 38 1008.0
20220528194555 95 180 5.0 17.0 0.00 0.00 0.00 38 1008.1
20220528194035 95 138 4.0 13.0 0.00 0.00 0.00 37 1008.2
20220528193535 95 195 5.0 18.0 0.00 0.00 0.00 34 1008.2
20220528193036 94 178 9.0 18.0 0.00 0.00 0.00 35 1008.4
20220528192534 94 171 4.0 13.0 0.00 0.00 0.00 41 1008.4
20220528192033 94 232 4.0 12.0 0.00 0.00 0.00 41 1008.6
20220528191534 95 166 5.0 12.0 0.00 0.00 0.00 39 1008.6
20220528191033 94 191 3.0 13.0 0.00 0.00 0.00 40 1008.7
20220528190529 93 150 5.0 18.0 0.00 0.00 0.00 41 1008.8
20220528190035 94 169 10.0 18.0 0.00 0.00 0.00 40 1009.0
20220528185528 93 167 5.0 17.0 0.00 0.00 0.00 43 1009.1
20220528185027 94 214 8.0 17.0 0.00 0.00 0.00 41 1009.2
20220528184530 93 171 7.0 14.0 0.00 0.00 0.00 40 1009.3
20220528184026 93 227 6.0 13.0 0.00 0.00 0.00 42 1009.4
20220528183524 93 159 5.0 18.0 0.00 0.00 0.00 42 1009.5
20220528183024 93 147 5.0 18.0 0.00 0.00 0.00 43 1009.4
20220528182523 93 84 5.0 12.0 0.00 0.00 0.00 43 1009.6
20220528182023 92 145 5.0 14.0 0.00 0.00 0.00 45 1009.7
20220528181520 92 163 6.0 14.0 0.00 0.00 0.00 45 1009.9
20220528181020 92 81 7.0 16.0 0.00 0.00 0.00 45 1010.0
20220528180537 91 182 4.0 11.0 0.00 0.00 0.00 47 1010.1
20220528180016 91 159 7.0 16.0 0.00 0.00 0.00 47 1010.3
20220528175514 91 184 4.0 13.0 0.00 0.00 0.00 51 1010.2
20220528175013 90 104 4.0 13.0 0.00 0.00 0.00 51 1010.3
20220528174514 90 195 5.0 17.0 0.00 0.00 0.00 50 1010.3
20220528174014 90 186 6.0 17.0 0.00 0.00 0.00 51 1010.3
20220528173510 90 212 6.0 12.0 0.00 0.00 0.00 52 1010.4
20220528173009 89 242 3.0 11.0 0.00 0.00 0.00 54 1010.4
20220528172508 89 103 5.0 11.0 0.00 0.00 0.00 54 1010.5
20220528172006 88 116 5.0 11.0 0.00 0.00 0.00 55 1010.5
20220528171508 88 202 5.0 14.0 0.00 0.00 0.00 57 1010.5
20220528171009 88 146 6.0 14.0 0.00 0.00 0.00 57 1010.5
20220528170502 87 149 3.0 10.0 0.00 0.00 0.00 59 1010.5
20220528170002 87 167 4.0 12.0 0.00 0.00 0.00 60 1010.7
20220528165501 87 194 6.0 12.0 0.00 0.00 0.00 59 1010.7
20220528165100 87 143 4.0 11.0 0.00 0.00 0.00 61 1010.7
20220528164559 86 168 3.0 10.0 0.00 0.00 0.00 64 1010.7
20220528164100 86 194 5.0 10.0 0.00 0.00 0.00 61 1010.8
20220528163558 86 165 4.0 10.0 0.00 0.00 0.00 62 1010.8
20220528163057 85 170 5.0 10.0 0.00 0.00 0.00 63 1010.9
20220528162555 85 219 2.0 8.0 0.00 0.00 0.00 65 1010.9
20220528162054 84 256 2.0 12.0 0.00 0.00 0.00 66 1010.9
20220528161609 84 129 5.0 12.0 0.00 0.00 0.00 65 1011.0
20220528161052 84 216 4.0 10.0 0.00 0.00 0.00 66 1011.0
20220528160551 83 184 5.0 10.0 0.00 0.00 0.00 66 1011.1
20220528160052 83 174 3.0 11.0 0.00 0.00 0.00 67 1011.1
20220528155555 83 132 3.0 12.0 0.00 0.00 0.00 67 1011.1
20220528155050 83 186 5.0 12.0 0.00 0.00 0.00 68 1011.1
20220528154546 83 175 3.0 10.0 0.00 0.00 0.00 69 1011.2
20220528154045 82 254 2.0 14.0 0.00 0.00 0.00 69 1011.3
20220528153544 82 229 5.0 12.0 0.00 0.00 0.00 69 1011.3
20220528153042 82 166 5.0 10.0 0.00 0.00 0.00 70 1011.4
20220528152540 81 189 6.0 10.0 0.00 0.00 0.00 70 1011.4
20220528152040 81 270 4.0 9.0 0.00 0.00 0.00 71 1011.5
20220528151539 80 182 5.0 10.0 0.00 0.00 0.00 71 1011.5
20220528151037 80 226 6.0 12.0 0.00 0.00 0.00 72 1011.5
20220528150537 80 215 4.0 11.0 0.00 0.00 0.00 73 1011.6
20220528150136 79 234 5.0 11.0 0.00 0.00 0.00 73 1011.6
20220528145535 79 231 4.0 12.0 0.00 0.00 0.00 73 1011.7
20220528145040 78 204 7.0 12.0 0.00 0.00 0.00 74 1011.6
20220528144541 78 179 5.0 12.0 0.00 0.00 0.00 74 1011.7
20220528144037 78 140 5.0 12.0 0.00 0.00 0.00 74 1011.7
20220528143533 79 175 5.0 12.0 0.00 0.00 0.00 74 1011.7
20220528143034 79 165 3.0 10.0 0.00 0.00 0.00 76 1011.6
20220528142532 78 211 4.0 10.0 0.00 0.00 0.00 75 1011.6
20220528142032 78 218 7.0 17.0 0.00 0.00 0.00 75 1011.5
20220528141536 78 140 7.0 17.0 0.00 0.00 0.00 75 1011.5
20220528141031 78 188 7.0 14.0 0.00 0.00 0.00 75 1011.5
20220528140532 78 237 5.0 13.0 0.00 0.00 0.00 75 1011.5
20220528140031 78 180 6.0 12.0 0.00 0.00 0.00 76 1011.4
20220528135528 78 186 5.0 15.0 0.00 0.00 0.00 77 1011.4
20220528135028 77 161 5.0 15.0 0.00 0.00 0.00 77 1011.4
20220528134526 77 240 5.0 12.0 0.00 0.00 0.00 77 1011.3
20220528134026 76 202 6.0 13.0 0.00 0.00 0.00 78 1011.2
20220528133524 76 242 4.0 12.0 0.00 0.00 0.00 78 1011.1
20220528133022 76 167 5.0 11.0 0.00 0.00 0.00 79 1011.2
20220528132528 76 250 4.0 10.0 0.00 0.00 0.00 80 1011.2
20220528132022 76 208 3.0 11.0 0.00 0.00 0.00 80 1011.3
20220528131522 76 236 3.0 9.0 0.00 0.00 0.00 80 1011.3
20220528131021 76 232 3.0 11.0 0.00 0.00 0.00 80 1011.4
20220528130522 76 211 5.0 11.0 0.00 0.00 0.00 80 1011.3
20220528130019 75 224 4.0 11.0 0.00 0.00 0.00 81 1011.2
20220528125518 75 183 5.0 11.0 0.00 0.00 0.00 81 1011.2
20220528125016 75 226 5.0 11.0 0.00 0.00 0.00 82 1011.3
20220528124517 75 204 4.0 10.0 0.00 0.00 0.00 83 1011.2
20220528124018 75 211 5.0 10.0 0.00 0.00 0.00 83 1011.3
20220528123515 75 226 6.0 10.0 0.00 0.00 0.00 84 1011.3
20220528123033 75 167 5.0 11.0 0.00 0.00 0.00 84 1011.4
20220528122518 75 153 3.0 10.0 0.00 0.00 0.00 85 1011.3
20220528122013 75 169 4.0 10.0 0.00 0.00 0.00 85 1011.3
20220528121513 75 179 3.0 8.0 0.00 0.00 0.00 85 1011.4
20220528121012 75 174 2.0 8.0 0.00 0.00 0.00 85 1011.3
20220528120511 75 222 2.0 7.0 0.00 0.00 0.00 85 1011.3
20220528120010 75 236 4.0 8.0 0.00 0.00 0.00 85 1011.2
20220528115510 75 175 3.0 8.0 0.00 0.00 0.00 85 1011.2
20220528115009 75 244 2.0 5.0 0.00 0.00 0.00 85 1011.2
20220528114509 75 196 2.0 7.0 0.00 0.00 0.00 85 1011.1
20220528114008 75 234 3.0 7.0 0.00 0.00 0.00 85 1011.1